Regional Weather Roundup
Issued by NWS

Home | Current Version | Previous Version | Graphics & Text | Print | Product List | Glossary On
Versions: 1 2 3 4 5 6 7 8 9 10 11 12 13 14 15 16 17 18 19 20 21 22 23 24 25 26 27 28 29 30 31 32 33 34 35 36 37 38 39 40 41 42 43 44 45 46 47 48 49 50
000
ASUS44 KMEG 290410
RWRTN
TENNESSEE HOURLY STATE WEATHER ROUNDUP
NATIONAL WEATHER SERVICE MEMPHIS TN
1100 PM CDT SAT MAY 28 2016

TNZ002-004-019-021-049-052-054-088>092-290500-
WEST TENNESSEE

CITY           SKY/WX    TMP DP  RH WIND       PRES   REMARKS
MEMPHIS INTL   PTCLDY    75  68  78 S7        30.05S
NWS MEMPHIS      N/A     72 N/A N/A MISG        N/A
JACKSON        MOCLDY    70  66  87 S3        30.06S
DYERSBURG      CLOUDY    72  64  78 S5        30.05R
UNION CITY     CLEAR     70  66  88 S5        30.05R
PARIS          CLEAR     68  63  83 SE3       30.08R
LEXINGTON      CLEAR     66  66 100 CALM      30.07F
$$

TNZ008-025-027-028-033-062-065-066-290500-
NORTH MIDDLE TENNESSEE

CITY           SKY/WX    TMP DP  RH WIND       PRES   REMARKS
NASHVILLE      MOCLDY    70  62  76 S5        30.09S
CLARKSVILLE    PTCLDY    73  64  73 CALM      30.07S
SMYRNA         CLEAR     68  65  90 CALM      30.11R
COOKEVILLE     CLEAR     64  64 100 CALM      30.12S
CROSSVILLE     PTCLDY    65  61  87 CALM      30.17F
$$

TNZ061-075-076-078-094-096-097-290500-
SOUTH MIDDLE TENNESSEE

CITY           SKY/WX    TMP DP  RH WIND       PRES   REMARKS
FAYETTEVILLE   PTCLDY    68  66  94 CALM      30.11S
TULLAHOMA      CLEAR     66  66 100 CALM      30.13S
WINCHESTER     CLEAR     64  63  94 CALM      30.12S
MCMINNVILLE    PTCLDY    64  64 100 CALM      30.13S
COLUMBIA       CLEAR    N/A N/A N/A CALM      30.08S
SHELBYVILLE    CLEAR     70  70 100 SE3       30.12R
$$

TNZ017-018-042-046-047-290500-
NORTHEAST TENNESSEE

CITY           SKY/WX    TMP DP  RH WIND       PRES   REMARKS
TRI CITIES     CLOUDY    71  56  58 CALM      30.15F
$$

TNZ012-013-036-069-073-074-290500-
CENTRAL EAST TENNESSEE

CITY           SKY/WX    TMP DP  RH WIND       PRES   REMARKS
KNOXVILLE      CLOUDY    72  66  81 E3        30.11S
OAK RIDGE      CLOUDY    71  65  81 CALM      30.13R
GATLINBURG     CLEAR     68  63  83 CALM      30.11S
$$

TNZ083-085-099-290500-
SOUTHEAST TENNESSEE

CITY           SKY/WX    TMP DP  RH WIND       PRES   REMARKS
CHATTANOOGA    PTCLDY    75  64  68 CALM      30.12R
$$

SKY/WX REPORTED AS FAIR MEANS FEW OR NO CLOUDS BELOW
12 THOUSAND FEET.





USA.gov is the U.S. government's official web portal to all federal, state and local government web resources and services.